SL-16 DEB, 24284

Orbit data source: Space-Track

SL-16 DEB, 24284 is space debris in LEO originally from a launch on Tue, 31 Oct 1995 UTC launched from the Tyuratam Missile And Space Complex (TTMTR). Debris objects in space refer to the collection of defunct objects orbiting the Earth. Examples of debris include non-operational satellites, rocket bodies, and fragments generated from explosions, collisions, or faulty payload assembly.

Loading next visibility...
SL-16 DEB details
Identifier
24284, 1995-058G
Orbit
LEO
Last TLE update7 hours ago
Origin
Flag of CISVKS (CIS)
ManufacturerUnknown
MissionSpacecraft
Bus & MotorUnknown
MassUnknown
Launch date (UTC)
1995-10-31 (29 years ago)
Launch vehicleUnknown
Launch site
Tyuratam Missile And Space Complex (TTMTR)
Object type
Payload
Rocket body
Debris
Shape & HBRUnknown
Radar Cross SectionSmall (<0.1 m²)

Expand to show TLE details & history

TLE from 7 hours ago
0 SL-16 DEB
1 24284U 95058G   24361.55820009  .00001187  00000-0  58030-3 0  9998
2 24284  70.8628 108.0970 0014198 232.3519 127.6317 14.20030704507400
Epoch: 2024-12-26T13:23Z
Definitive object data (Epoch: 2024-12-26T13:23:48.487Z)
Latitude-0.00012°
Longitude171.60906°
Altitude833.9 km
Speed7.433 km/s
True Right ascension07h 12m 23s
True Declination0° 00' 00"
Sunlit
Object was in full shadow at TLE epoch
Visualization TLE readout
Latitude22.10444°
Longitude-17.11568°
Altitude824.819 km
Speed7.444 km/s
Apparent Right ascension15h 46m 52s
Apparent Declination-24° 24' 37"
Sunlit
Object is in daylight
Visualization observer readout
Local Sidereal Time20:16:36
Azimuth237.236° WSW
Elevation0.161°
Doppler factor1
Orbital elements
Apogee altitude833.407 km
Perigee altitude812.958 km
Semi-major axis7,201.319 km
Eccentricity0.0014198
Inclination70.8628°
RAAN108.097°
Arg. of periapsis232.3519°
True anomaly127.76041°
Mean anomaly127.6317°
Eccentric anomaly127.69607°
Mean motion3.55161 °/min
BSTAR0.0005803
Orbital period101.36 mins
Loading maneuver chart data...
Loading historical data...
Loading historical data...
Loading historical data...
Loading historical data...
Loading historical data...
Loading historical data...
Loading historical data...

SL-16 DEB Visibility forecast

Observer location: undefined°, undefined

Span
Click to sort rows by Start time (UTC) header in descending order
Start Az.
Max El. time (UTC)
Max El. Az.
Max El.
End time (UTC)
End Az.
9 mins2024-12-27 08:06:42.800Z172.327° S2024-12-27 08:10:42.800Z114.468° SE34.339°2024-12-27 08:15:42.800Z38.573° NE
7 mins2024-12-27 09:51:42.800Z259.12° W2024-12-27 09:54:42.800Z301.986° NW24.266°2024-12-27 09:58:42.800Z355.736° N
6 mins2024-12-27 17:00:42.800Z20.283° NNE2024-12-27 17:02:42.800Z45.891° ENE18.498°2024-12-27 17:06:42.800Z95° ESE
9 mins2024-12-27 18:43:42.800Z325.227° NNW2024-12-27 18:47:42.800Z228.079° WSW41.024°2024-12-27 18:52:42.800Z171.245° S
|